Location: Borovka
(49.7741°N, 14.5280°E)
Time: 16:19:28
(UTC+00:00)

Cosmos 1802 Rocket - Pass Details

Date: 17 November 2025
Orbit: 953 x 1011 km, 82.9° (Epoch: 12 December)

Event Time Altitude Azimuth Distance (km) Brightness Sun altitude
Rises 15:42:08 0° 184° (S) 3,729 7.5 -4.6°
Reaches altitude 10° 15:44:39 10° 183° (S) 2,785 6.8 -5.0°
Maximum altitude 15:51:05 83° 97° (E) 1,025 4.1 -5.9°
Drops below altitude 10° 15:57:31 10° 11° (N) 2,793 6.1 -6.9°
Sets 16:00:03 0° 11° (N) 3,741 6.7 -7.3°
